Time,TemperatureF,DewpointF,PressureIn,WindDirection,WindDirectionDegrees,WindSpeedMPH,WindSpeedGustMPH,Humidity,HourlyPrecipIn,Conditions,Clouds,dailyrainin,SoftwareType,DateUTC
2013-02-25 00:04:00,29.4,27.4,30.20,NW,320,8.0,9.0,92,0.00,,,0.00,Wunderground v.1.15,2013-02-25 05:04:00,
2013-02-25 00:09:00,29.4,27.4,30.20,NNW,334,7.0,8.0,92,0.00,,,0.00,Wunderground v.1.15,2013-02-25 05:09:00,
2013-02-25 00:14:00,29.4,27.4,30.20,NNW,329,7.0,8.0,92,0.00,,,0.00,Wunderground v.1.15,2013-02-25 05:14:00,
2013-02-25 00:19:00,29.4,27.4,30.20,NNW,336,7.0,7.0,92,0.00,,,0.00,Wunderground v.1.15,2013-02-25 05:19:00,
2013-02-25 00:24:00,29.4,27.4,30.20,NNW,332,7.0,7.0,92,0.00,,,0.00,Wunderground v.1.15,2013-02-25 05:24:00,
2013-02-25 00:34:00,29.5,27.5,30.20,NNW,332,7.0,12.0,92,0.00,,,0.00,Wunderground v.1.15,2013-02-25 05:34:00,
2013-02-25 00:39:00,29.4,27.4,30.20,NW,323,7.0,12.0,92,0.00,,,0.00,Wunderground v.1.15,2013-02-25 05:39:00,
2013-02-25 00:44:00,29.5,27.5,30.21,North,360,7.0,12.0,92,0.00,,,0.00,Wunderground v.1.15,2013-02-25 05:44:00,
2013-02-25 00:49:00,29.5,27.2,30.21,NNW,344,7.0,12.0,91,0.00,,,0.00,Wunderground v.1.15,2013-02-25 05:49:00,
2013-02-25 00:54:00,29.5,27.2,30.21,North,5,7.0,12.0,91,0.00,,,0.00,Wunderground v.1.15,2013-02-25 05:54:00,
2013-02-25 00:59:00,29.5,27.2,30.21,NNW,331,8.0,9.0,91,0.00,,,0.00,Wunderground v.1.15,2013-02-25 05:59:00,
2013-02-25 01:04:00,29.5,27.2,30.21,NNW,348,7.0,9.0,91,0.00,,,0.00,Wunderground v.1.15,2013-02-25 06:04:00,
2013-02-25 01:09:00,29.5,27.5,30.21,NNW,342,6.0,10.0,92,0.00,,,0.00,Wunderground v.1.15,2013-02-25 06:09:00,
2013-02-25 01:19:00,29.5,27.5,30.22,NNW,334,7.0,7.0,92,0.00,,,0.00,Wunderground v.1.15,2013-02-25 06:19:00,
2013-02-25 01:24:00,29.5,27.2,30.22,NNW,333,7.0,7.0,91,0.00,,,0.00,Wunderground v.1.15,2013-02-25 06:24:00,
2013-02-25 01:29:00,29.5,27.2,30.22,NNW,337,7.0,7.0,91,0.00,,,0.00,Wunderground v.1.15,2013-02-25 06:29:00,
2013-02-25 01:39:00,29.6,27.3,30.22,North,5,7.0,13.0,91,0.00,,,0.00,Wunderground v.1.15,2013-02-25 06:39:00,
2013-02-25 01:44:00,29.8,27.5,30.22,NNW,348,7.0,13.0,91,0.00,,,0.00,Wunderground v.1.15,2013-02-25 06:44:00,
2013-02-25 01:49:00,29.8,27.5,30.23,NNW,342,7.0,7.0,91,0.00,,,0.00,Wunderground v.1.15,2013-02-25 06:49:00,
2013-02-25 01:54:00,29.8,27.5,30.22,North,355,6.0,13.0,91,0.00,,,0.00,Wunderground v.1.15,2013-02-25 06:54:00,
2013-02-25 02:04:00,29.8,27.5,30.23,North,5,7.0,7.0,91,0.00,,,0.00,Wunderground v.1.15,2013-02-25 07:04:00,
2013-02-25 02:14:00,29.9,27.6,30.24,NNW,345,7.0,9.0,91,0.00,,,0.00,Wunderground v.1.15,2013-02-25 07:14:00,
2013-02-25 02:19:00,29.9,27.6,30.23,NNW,346,7.0,7.0,91,0.00,,,0.00,Wunderground v.1.15,2013-02-25 07:19:00,
2013-02-25 02:24:00,29.9,27.6,30.23,NW,325,7.0,7.0,91,0.00,,,0.00,Wunderground v.1.15,2013-02-25 07:24:00,
2013-02-25 02:29:00,29.9,27.3,30.23,NNW,348,7.0,7.0,90,0.00,,,0.00,Wunderground v.1.15,2013-02-25 07:29:00,
2013-02-25 02:34:00,29.9,27.3,30.24,North,360,7.0,8.0,90,0.00,,,0.00,Wunderground v.1.15,2013-02-25 07:34:00,
2013-02-25 02:44:00,29.9,27.3,30.24,North,355,8.0,12.0,90,0.00,,,0.00,Wunderground v.1.15,2013-02-25 07:44:00,
2013-02-25 02:49:00,29.9,27.3,30.24,NNE,13,7.0,7.0,90,0.00,,,0.00,Wunderground v.1.15,2013-02-25 07:49:00,
2013-02-25 02:54:00,29.9,27.3,30.24,North,350,7.0,8.0,90,0.00,,,0.00,Wunderground v.1.15,2013-02-25 07:54:00,
2013-02-25 03:04:00,29.9,27.3,30.24,North,355,6.0,7.0,90,0.00,,,0.00,Wunderground v.1.15,2013-02-25 08:04:00,
2013-02-25 03:09:00,29.9,27.3,30.24,North,5,6.0,6.0,90,0.00,,,0.00,Wunderground v.1.15,2013-02-25 08:09:00,
2013-02-25 03:19:00,29.9,27.3,30.24,NNE,12,5.0,5.0,90,0.00,,,0.00,Wunderground v.1.15,2013-02-25 08:19:00,
2013-02-25 03:24:00,29.9,27.3,30.24,NNW,340,6.0,9.0,90,0.00,,,0.00,Wunderground v.1.15,2013-02-25 08:24:00,
2013-02-25 03:29:00,29.9,27.3,30.24,NNW,348,7.0,7.0,90,0.00,,,0.00,Wunderground v.1.15,2013-02-25 08:29:00,
2013-02-25 03:34:00,29.9,27.3,30.24,North,349,7.0,12.0,90,0.00,,,0.00,Wunderground v.1.15,2013-02-25 08:34:00,
2013-02-25 03:39:00,29.9,27.3,30.24,North,5,8.0,8.0,90,0.00,,,0.00,Wunderground v.1.15,2013-02-25 08:39:00,
2013-02-25 03:44:00,29.9,27.3,30.24,North,5,9.0,9.0,90,0.00,,,0.00,Wunderground v.1.15,2013-02-25 08:44:00,
2013-02-25 03:54:00,29.9,27.3,30.25,NNE,14,8.0,12.0,90,0.00,,,0.00,Wunderground v.1.15,2013-02-25 08:54:00,
2013-02-25 03:59:00,29.9,27.3,30.25,North,5,7.0,7.0,90,0.00,,,0.00,Wunderground v.1.15,2013-02-25 08:59:00,
2013-02-25 04:09:00,29.8,27.2,30.25,North,9,6.0,6.0,90,0.00,,,0.00,Wunderground v.1.15,2013-02-25 09:09:00,
2013-02-25 04:14:00,29.9,27.3,30.25,North,360,6.0,6.0,90,0.00,,,0.00,Wunderground v.1.15,2013-02-25 09:14:00,
2013-02-25 04:24:00,29.8,27.2,30.25,NNW,346,5.0,7.0,90,0.00,,,0.00,Wunderground v.1.15,2013-02-25 09:24:00,
2013-02-25 04:29:00,29.8,27.2,30.25,North,350,6.0,6.0,90,0.00,,,0.00,Wunderground v.1.15,2013-02-25 09:29:00,
2013-02-25 04:34:00,29.9,27.3,30.26,NNE,14,5.0,11.0,90,0.00,,,0.00,Wunderground v.1.15,2013-02-25 09:34:00,
2013-02-25 04:39:00,29.9,27.3,30.26,NNE,15,5.0,5.0,90,0.00,,,0.00,Wunderground v.1.15,2013-02-25 09:39:00,
2013-02-25 04:44:00,29.9,27.3,30.26,NNE,15,5.0,11.0,90,0.00,,,0.00,Wunderground v.1.15,2013-02-25 09:44:00,
2013-02-25 04:49:00,29.9,27.3,30.26,North,360,6.0,6.0,90,0.00,,,0.00,Wunderground v.1.15,2013-02-25 09:49:00,
2013-02-25 04:59:00,29.9,27.3,30.27,NNE,14,5.0,5.0,90,0.00,,,0.00,Wunderground v.1.15,2013-02-25 09:59:00,
2013-02-25 05:09:00,29.9,27.3,30.27,North,10,6.0,6.0,90,0.00,,,0.00,Wunderground v.1.15,2013-02-25 10:09:00,
2013-02-25 05:14:00,30.0,27.4,30.27,North,349,6.0,6.0,90,0.00,,,0.00,Wunderground v.1.15,2013-02-25 10:14:00,
2013-02-25 05:19:00,30.0,27.4,30.27,North,360,6.0,6.0,90,0.00,,,0.00,Wunderground v.1.15,2013-02-25 10:19:00,
2013-02-25 05:24:00,30.0,27.4,30.28,NNE,17,5.0,6.0,90,0.00,,,0.00,Wunderground v.1.15,2013-02-25 10:24:00,
2013-02-25 05:34:00,30.0,27.4,30.27,North,5,6.0,12.0,90,0.00,,,0.00,Wunderground v.1.15,2013-02-25 10:34:00,
2013-02-25 05:39:00,30.0,27.7,30.28,North,5,6.0,12.0,91,0.00,,,0.00,Wunderground v.1.15,2013-02-25 10:39:00,
2013-02-25 05:44:00,30.0,27.4,30.28,NNW,344,6.0,12.0,90,0.00,,,0.00,Wunderground v.1.15,2013-02-25 10:44:00,
2013-02-25 05:49:00,30.0,27.7,30.28,NNW,339,5.0,12.0,91,0.00,,,0.00,Wunderground v.1.15,2013-02-25 10:49:00,
2013-02-25 05:54:00,30.0,27.7,30.28,North,355,5.0,12.0,91,0.00,,,0.00,Wunderground v.1.15,2013-02-25 10:54:00,
2013-02-25 06:04:00,29.9,27.6,30.29,NNW,346,4.0,5.0,91,0.00,,,0.00,Wunderground v.1.15,2013-02-25 11:04:00,
2013-02-25 06:09:00,29.9,27.6,30.29,NNW,345,4.0,4.0,91,0.00,,,0.00,Wunderground v.1.15,2013-02-25 11:09:00,
2013-02-25 06:14:00,29.9,27.6,30.29,North,360,4.0,4.0,91,0.00,,,0.00,Wunderground v.1.15,2013-02-25 11:14:00,
2013-02-25 06:19:00,29.9,27.6,30.29,North,360,4.0,4.0,91,0.00,,,0.00,Wunderground v.1.15,2013-02-25 11:19:00,
2013-02-25 06:24:00,29.9,27.6,30.29,North,350,4.0,4.0,91,0.00,,,0.00,Wunderground v.1.15,2013-02-25 11:24:00,
2013-02-25 06:29:00,29.9,27.6,30.29,North,360,4.0,4.0,91,0.00,,,0.00,Wunderground v.1.15,2013-02-25 11:29:00,
2013-02-25 06:34:00,29.9,27.6,30.29,North,350,4.0,11.0,91,0.00,,,0.00,Wunderground v.1.15,2013-02-25 11:34:00,
2013-02-25 06:44:00,29.8,27.5,30.29,North,355,3.0,6.0,91,0.00,,,0.00,Wunderground v.1.15,2013-02-25 11:44:00,
2013-02-25 06:49:00,29.8,27.5,30.30,North,351,4.0,4.0,91,0.00,,,0.00,Wunderground v.1.15,2013-02-25 11:49:00,
2013-02-25 06:54:00,29.8,27.5,30.30,North,5,4.0,11.0,91,0.00,,,0.00,Wunderground v.1.15,2013-02-25 11:54:00,
2013-02-25 06:59:00,29.8,27.5,30.30,North,5,4.0,4.0,91,0.00,,,0.00,Wunderground v.1.15,2013-02-25 11:59:00,
2013-02-25 07:09:00,29.8,27.5,30.30,North,360,4.0,4.0,91,0.00,,,0.00,Wunderground v.1.15,2013-02-25 12:09:00,
2013-02-25 07:19:00,29.8,27.5,30.30,North,360,3.0,3.0,91,0.00,,,0.00,Wunderground v.1.15,2013-02-25 12:19:00,
2013-02-25 07:24:00,29.8,27.8,30.30,North,360,2.0,3.0,92,0.00,,,0.00,Wunderground v.1.15,2013-02-25 12:24:00,
2013-02-25 07:29:00,29.8,27.8,30.30,North,360,2.0,2.0,92,0.00,,,0.00,Wunderground v.1.15,2013-02-25 12:29:00,
2013-02-25 07:34:00,29.8,27.8,30.30,North,360,1.0,8.0,92,0.00,,,0.00,Wunderground v.1.15,2013-02-25 12:34:00,
2013-02-25 07:39:00,29.8,27.8,30.30,North,360,1.0,8.0,92,0.00,,,0.00,Wunderground v.1.15,2013-02-25 12:39:00,
2013-02-25 07:49:00,29.8,27.8,30.31,NNW,343,3.0,3.0,92,0.00,,,0.00,Wunderground v.1.15,2013-02-25 12:49:00,
2013-02-25 07:59:00,29.9,27.9,30.31,NNW,343,3.0,3.0,92,0.00,,,0.00,Wunderground v.1.15,2013-02-25 12:59:00,
2013-02-25 08:09:00,30.0,28.0,30.32,NNW,343,3.0,3.0,92,0.00,,,0.00,Wunderground v.1.15,2013-02-25 13:09:00,
2013-02-25 08:19:00,30.1,28.1,30.31,NNW,343,2.0,4.0,92,0.00,,,0.00,Wunderground v.1.15,2013-02-25 13:19:00,
2013-02-25 08:24:00,30.2,28.2,30.32,NNW,343,2.0,4.0,92,0.00,,,0.00,Wunderground v.1.15,2013-02-25 13:24:00,
2013-02-25 08:34:00,30.5,28.5,30.32,NNW,343,3.0,6.0,92,0.00,,,0.00,Wunderground v.1.15,2013-02-25 13:34:00,
2013-02-25 08:39:00,30.5,28.5,30.32,NNW,343,3.0,8.0,92,0.00,,,0.00,Wunderground v.1.15,2013-02-25 13:39:00,
2013-02-25 08:44:00,30.5,28.5,30.32,NNW,343,4.0,8.0,92,0.00,,,0.00,Wunderground v.1.15,2013-02-25 13:44:00,
2013-02-25 08:49:00,30.6,28.6,30.32,NNW,343,3.0,8.0,92,0.00,,,0.00,Wunderground v.1.15,2013-02-25 13:49:00,
2013-02-25 08:54:00,30.7,28.7,30.32,NNW,343,3.0,8.0,92,0.00,,,0.00,Wunderground v.1.15,2013-02-25 13:54:00,
2013-02-25 08:59:00,30.7,28.7,30.32,NNW,343,3.0,3.0,92,0.00,,,0.00,Wunderground v.1.15,2013-02-25 13:59:00,
2013-02-25 09:09:00,30.8,28.5,30.33,North,360,4.0,4.0,91,0.00,,,0.00,Wunderground v.1.15,2013-02-25 14:09:00,
2013-02-25 09:14:00,30.9,28.6,30.33,North,5,4.0,4.0,91,0.00,,,0.00,Wunderground v.1.15,2013-02-25 14:14:00,
2013-02-25 09:19:00,31.0,28.7,30.33,North,360,4.0,4.0,91,0.00,,,0.00,Wunderground v.1.15,2013-02-25 14:19:00,
2013-02-25 09:24:00,31.1,28.8,30.34,North,349,4.0,6.0,91,0.00,,,0.00,Wunderground v.1.15,2013-02-25 14:24:00,
2013-02-25 09:29:00,31.1,28.8,30.34,NNW,339,5.0,5.0,91,0.00,,,0.00,Wunderground v.1.15,2013-02-25 14:29:00,
2013-02-25 09:39:00,31.3,29.0,30.34,North,355,5.0,6.0,91,0.00,,,0.00,Wunderground v.1.15,2013-02-25 14:39:00,
2013-02-25 09:44:00,31.3,29.0,30.34,North,9,5.0,6.0,91,0.00,,,0.00,Wunderground v.1.15,2013-02-25 14:44:00,
2013-02-25 09:49:00,31.4,29.1,30.34,North,360,5.0,5.0,91,0.00,,,0.00,Wunderground v.1.15,2013-02-25 14:49:00,
2013-02-25 09:54:00,31.5,28.9,30.34,North,11,5.0,7.0,90,0.00,,,0.00,Wunderground v.1.15,2013-02-25 14:54:00,
2013-02-25 09:59:00,31.6,29.0,30.34,North,355,5.0,5.0,90,0.00,,,0.00,Wunderground v.1.15,2013-02-25 14:59:00,
2013-02-25 10:09:00,32.0,29.4,30.34,North,9,4.0,4.0,90,0.00,,,0.00,Wunderground v.1.15,2013-02-25 15:09:00,
2013-02-25 10:14:00,32.1,29.5,30.34,North,360,4.0,5.0,90,0.00,,,0.00,Wunderground v.1.15,2013-02-25 15:14:00,
2013-02-25 10:19:00,32.2,29.3,30.34,North,355,4.0,7.0,89,0.00,,,0.00,Wunderground v.1.15,2013-02-25 15:19:00,
2013-02-25 10:29:00,32.3,29.1,30.34,NNE,17,6.0,6.0,88,0.00,,,0.00,Wunderground v.1.15,2013-02-25 15:29:00,
2013-02-25 10:34:00,32.5,29.3,30.34,North,11,7.0,7.0,88,0.00,,,0.00,Wunderground v.1.15,2013-02-25 15:34:00,
2013-02-25 10:44:00,32.7,29.3,30.34,North,9,6.0,8.0,87,0.00,,,0.00,Wunderground v.1.15,2013-02-25 15:44:00,
2013-02-25 10:49:00,32.8,29.4,30.34,NNE,15,6.0,8.0,87,0.00,,,0.00,Wunderground v.1.15,2013-02-25 15:49:00,
2013-02-25 10:54:00,32.8,29.1,30.35,North,360,6.0,8.0,86,0.00,,,0.00,Wunderground v.1.15,2013-02-25 15:54:00,
2013-02-25 11:04:00,33.2,29.5,30.35,North,9,5.0,7.0,86,0.00,,,0.00,Wunderground v.1.15,2013-02-25 16:04:00,
2013-02-25 11:09:00,33.3,29.3,30.35,NNE,17,5.0,5.0,85,0.00,,,0.00,Wunderground v.1.15,2013-02-25 16:09:00,
2013-02-25 11:19:00,33.4,29.4,30.35,NNE,26,5.0,5.0,85,0.00,,,0.00,Wunderground v.1.15,2013-02-25 16:19:00,
2013-02-25 11:24:00,33.7,29.7,30.35,NNW,344,4.0,7.0,85,0.00,,,0.00,Wunderground v.1.15,2013-02-25 16:24:00,
2013-02-25 11:29:00,33.8,29.5,30.35,North,5,5.0,5.0,84,0.00,,,0.00,Wunderground v.1.15,2013-02-25 16:29:00,
2013-02-25 11:34:00,33.9,29.3,30.35,NNE,27,6.0,6.0,83,0.00,,,0.00,Wunderground v.1.15,2013-02-25 16:34:00,
2013-02-25 11:39:00,33.9,29.0,30.36,North,9,5.0,11.0,82,0.00,,,0.00,Wunderground v.1.15,2013-02-25 16:39:00,
2013-02-25 11:49:00,34.3,29.7,30.36,NNW,336,5.0,11.0,83,0.00,,,0.00,Wunderground v.1.15,2013-02-25 16:49:00,
2013-02-25 11:54:00,34.3,29.1,30.36,NNW,335,6.0,11.0,81,0.00,,,0.00,Wunderground v.1.15,2013-02-25 16:54:00,
2013-02-25 12:04:00,34.3,29.4,30.36,NNW,346,7.0,8.0,82,0.00,,,0.00,Wunderground v.1.15,2013-02-25 17:04:00,
2013-02-25 12:09:00,34.1,28.9,30.37,North,5,6.0,6.0,81,0.00,,,0.00,Wunderground v.1.15,2013-02-25 17:09:00,
2013-02-25 12:14:00,34.3,28.8,30.36,NNE,18,6.0,7.0,80,0.00,,,0.00,Wunderground v.1.15,2013-02-25 17:14:00,
2013-02-25 12:19:00,34.4,28.6,30.37,North,351,6.0,6.0,79,0.00,,,0.00,Wunderground v.1.15,2013-02-25 17:19:00,
2013-02-25 12:29:00,34.7,28.9,30.36,NNE,15,6.0,6.0,79,0.00,,,0.00,Wunderground v.1.15,2013-02-25 17:29:00,
2013-02-25 12:34:00,34.6,28.4,30.37,North,355,7.0,7.0,78,0.00,,,0.00,Wunderground v.1.15,2013-02-25 17:34:00,
2013-02-25 12:39:00,34.7,28.5,30.37,North,350,6.0,10.0,78,0.00,,,0.00,Wunderground v.1.15,2013-02-25 17:39:00,
2013-02-25 12:44:00,34.8,29.0,30.37,North,355,5.0,10.0,79,0.00,,,0.00,Wunderground v.1.15,2013-02-25 17:44:00,
2013-02-25 12:54:00,34.6,28.4,30.38,NNE,16,6.0,10.0,78,0.00,,,0.00,Wunderground v.1.15,2013-02-25 17:54:00,
2013-02-25 12:59:00,34.6,28.4,30.38,North,350,6.0,6.0,78,0.00,,,0.00,Wunderground v.1.15,2013-02-25 17:59:00,
2013-02-25 13:09:00,34.8,28.6,30.37,North,349,5.0,5.0,78,0.00,,,0.00,Wunderground v.1.15,2013-02-25 18:09:00,
2013-02-25 13:14:00,34.9,28.7,30.37,NNW,343,5.0,5.0,78,0.00,,,0.00,Wunderground v.1.15,2013-02-25 18:14:00,
2013-02-25 13:19:00,34.9,28.4,30.37,North,11,5.0,5.0,77,0.00,,,0.00,Wunderground v.1.15,2013-02-25 18:19:00,
2013-02-25 13:24:00,34.8,28.6,30.36,NNE,13,4.0,5.0,78,0.00,,,0.00,Wunderground v.1.15,2013-02-25 18:24:00,
2013-02-25 13:34:00,34.8,29.0,30.37,North,350,4.0,12.0,79,0.00,,,0.00,Wunderground v.1.15,2013-02-25 18:34:00,
2013-02-25 13:39:00,34.8,29.3,30.36,North,5,4.0,12.0,80,0.00,,,0.00,Wunderground v.1.15,2013-02-25 18:39:00,
2013-02-25 13:44:00,34.4,28.6,30.37,North,10,4.0,12.0,79,0.00,,,0.00,Wunderground v.1.15,2013-02-25 18:44:00,
2013-02-25 13:54:00,34.2,28.7,30.37,NNW,337,4.0,12.0,80,0.00,,,0.00,Wunderground v.1.15,2013-02-25 18:54:00,
2013-02-25 13:59:00,34.3,28.8,30.37,North,11,4.0,4.0,80,0.00,,,0.00,Wunderground v.1.15,2013-02-25 18:59:00,
2013-02-25 14:09:00,34.2,28.4,30.38,North,11,5.0,5.0,79,0.00,,,0.00,Wunderground v.1.15,2013-02-25 19:09:00,
2013-02-25 14:14:00,34.1,28.3,30.37,North,360,6.0,6.0,79,0.00,,,0.00,Wunderground v.1.15,2013-02-25 19:14:00,
2013-02-25 14:19:00,34.1,28.3,30.37,North,355,5.0,5.0,79,0.00,,,0.00,Wunderground v.1.15,2013-02-25 19:19:00,
2013-02-25 14:24:00,34.1,28.3,30.37,North,5,4.0,5.0,79,0.00,,,0.00,Wunderground v.1.15,2013-02-25 19:24:00,
2013-02-25 14:29:00,34.3,28.8,30.37,North,11,4.0,7.0,80,0.00,,,0.00,Wunderground v.1.15,2013-02-25 19:29:00,
2013-02-25 14:34:00,34.3,28.5,30.37,North,10,4.0,9.0,79,0.00,,,0.00,Wunderground v.1.15,2013-02-25 19:34:00,
2013-02-25 14:44:00,34.6,28.1,30.37,NNE,18,4.0,9.0,77,0.00,,,0.00,Wunderground v.1.15,2013-02-25 19:44:00,
2013-02-25 14:49:00,34.8,28.0,30.37,NNE,23,4.0,4.0,76,0.00,,,0.00,Wunderground v.1.15,2013-02-25 19:49:00,
2013-02-25 14:54:00,34.6,27.2,30.37,NNE,15,4.0,9.0,74,0.00,,,0.00,Wunderground v.1.15,2013-02-25 19:54:00,
2013-02-25 14:59:00,34.7,27.6,30.36,NE,34,4.0,4.0,75,0.00,,,0.00,Wunderground v.1.15,2013-02-25 19:59:00,
2013-02-25 15:09:00,34.8,27.4,30.36,North,11,3.0,3.0,74,0.00,,,0.00,Wunderground v.1.15,2013-02-25 20:09:00,
2013-02-25 15:44:00,34.7,27.3,30.36,NNE,26,2.0,10.0,74,0.00,,,0.00,Wunderground v.1.15,2013-02-25 20:44:00,
2013-02-25 15:49:00,34.6,27.2,30.36,NNE,26,2.0,10.0,74,0.00,,,0.00,Wunderground v.1.15,2013-02-25 20:49:00,
2013-02-25 15:54:00,34.6,27.2,30.36,NNE,26,2.0,10.0,74,0.00,,,0.00,Wunderground v.1.15,2013-02-25 20:54:00,
2013-02-25 15:59:00,34.6,27.5,30.36,NNE,26,2.0,2.0,75,0.00,,,0.00,Wunderground v.1.15,2013-02-25 20:59:00,
2013-02-25 16:09:00,34.4,27.0,30.36,NNE,26,2.0,2.0,74,0.00,,,0.00,Wunderground v.1.15,2013-02-25 21:09:00,
2013-02-25 16:14:00,34.5,27.4,30.36,NNE,26,2.0,3.0,75,0.00,,,0.00,Wunderground v.1.15,2013-02-25 21:14:00,
2013-02-25 16:19:00,34.4,27.3,30.37,NNE,26,2.0,3.0,75,0.00,,,0.00,Wunderground v.1.15,2013-02-25 21:19:00,
2013-02-25 16:29:00,34.4,27.6,30.37,NNE,26,1.0,1.0,76,0.00,,,0.00,Wunderground v.1.15,2013-02-25 21:29:00,
2013-02-25 16:34:00,34.3,27.5,30.36,NNE,26,1.0,7.0,76,0.00,,,0.00,Wunderground v.1.15,2013-02-25 21:34:00,
2013-02-25 16:39:00,34.3,27.5,30.36,NNE,26,0.0,7.0,76,0.00,,,0.00,Wunderground v.1.15,2013-02-25 21:39:00,
2013-02-25 16:44:00,34.2,27.1,30.36,NNE,26,0.0,7.0,75,0.00,,,0.00,Wunderground v.1.15,2013-02-25 21:44:00,
2013-02-25 16:54:00,34.3,27.5,30.37,NNE,26,0.0,7.0,76,0.00,,,0.00,Wunderground v.1.15,2013-02-25 21:54:00,
2013-02-25 16:59:00,34.3,27.2,30.37,NNE,26,0.0,1.0,75,0.00,,,0.00,Wunderground v.1.15,2013-02-25 21:59:00,
2013-02-25 17:09:00,34.2,27.1,30.37,NNE,26,0.0,0.0,75,0.00,,,0.00,Wunderground v.1.15,2013-02-25 22:09:00,
2013-02-25 17:14:00,34.2,27.1,30.37,NNE,26,0.0,0.0,75,0.00,,,0.00,Wunderground v.1.15,2013-02-25 22:14:00,
2013-02-25 17:19:00,34.1,27.0,30.37,NNE,26,0.0,0.0,75,0.00,,,0.00,Wunderground v.1.15,2013-02-25 22:19:00,
2013-02-25 17:24:00,34.1,27.3,30.38,NNE,26,0.0,0.0,76,0.00,,,0.00,Wunderground v.1.15,2013-02-25 22:24:00,
2013-02-25 17:29:00,34.0,27.5,30.38,NNE,26,0.0,0.0,77,0.00,,,0.00,Wunderground v.1.15,2013-02-25 22:29:00,
2013-02-25 17:39:00,33.9,27.1,30.38,NNE,26,0.0,6.0,76,0.00,,,0.00,Wunderground v.1.15,2013-02-25 22:39:00,
2013-02-25 17:44:00,33.9,27.1,30.38,NNE,26,0.0,6.0,76,0.00,,,0.00,Wunderground v.1.15,2013-02-25 22:44:00,
2013-02-25 17:49:00,33.8,27.0,30.38,NNE,26,0.0,6.0,76,0.00,,,0.00,Wunderground v.1.15,2013-02-25 22:49:00,
2013-02-25 17:54:00,33.8,26.7,30.38,NNE,26,0.0,6.0,75,0.00,,,0.00,Wunderground v.1.15,2013-02-25 22:54:00,
2013-02-25 17:59:00,33.8,26.7,30.38,NNE,26,0.0,0.0,75,0.00,,,0.00,Wunderground v.1.15,2013-02-25 22:59:00,
2013-02-25 18:09:00,33.7,27.6,30.37,NNE,26,0.0,0.0,78,0.00,,,0.00,Wunderground v.1.15,2013-02-25 23:09:00,
2013-02-25 18:19:00,33.4,28.2,30.37,NNE,26,0.0,0.0,81,0.00,,,0.00,Wunderground v.1.15,2013-02-25 23:19:00,
2013-02-25 18:29:00,32.9,28.3,30.38,NNE,26,0.0,0.0,83,0.00,,,0.00,Wunderground v.1.15,2013-02-25 23:29:00,
2013-02-25 18:34:00,32.7,27.8,30.38,NNE,26,0.0,2.0,82,0.00,,,0.00,Wunderground v.1.15,2013-02-25 23:34:00,
2013-02-25 18:39:00,32.7,27.8,30.38,NNE,26,0.0,2.0,82,0.00,,,0.00,Wunderground v.1.15,2013-02-25 23:39:00,
2013-02-25 18:49:00,32.5,27.6,30.39,NNE,26,0.0,2.0,82,0.00,,,0.00,Wunderground v.1.15,2013-02-25 23:49:00,
2013-02-25 18:54:00,32.8,27.3,30.39,NNE,26,0.0,2.0,80,0.00,,,0.00,Wunderground v.1.15,2013-02-25 23:54:00,
2013-02-25 18:59:00,32.9,27.1,30.39,NNE,26,1.0,1.0,79,0.00,,,0.00,Wunderground v.1.15,2013-02-25 23:59:00,
2013-02-25 19:09:00,32.9,27.1,30.39,NNE,26,0.0,0.0,79,0.00,,,0.00,Wunderground v.1.15,2013-02-26 00:09:00,
2013-02-25 19:14:00,32.8,27.3,30.39,NNE,26,0.0,0.0,80,0.00,,,0.00,Wunderground v.1.15,2013-02-26 00:14:00,
2013-02-25 19:24:00,32.8,27.3,30.39,NNE,26,0.0,0.0,80,0.00,,,0.00,Wunderground v.1.15,2013-02-26 00:24:00,
2013-02-25 19:29:00,32.8,27.3,30.39,NNE,26,0.0,0.0,80,0.00,,,0.00,Wunderground v.1.15,2013-02-26 00:29:00,
2013-02-25 19:34:00,32.8,27.3,30.39,NNE,26,0.0,0.0,80,0.00,,,0.00,Wunderground v.1.15,2013-02-26 00:34:00,
2013-02-25 19:39:00,32.7,27.5,30.39,NNE,26,0.0,0.0,81,0.00,,,0.00,Wunderground v.1.15,2013-02-26 00:39:00,
2013-02-25 19:44:00,32.6,27.7,30.39,NNE,26,0.0,0.0,82,0.00,,,0.00,Wunderground v.1.15,2013-02-26 00:44:00,
2013-02-25 19:49:00,32.4,27.5,30.39,NNE,26,0.0,0.0,82,0.00,,,0.00,Wunderground v.1.15,2013-02-26 00:49:00,
2013-02-25 19:59:00,32.3,27.4,30.39,NNE,26,0.0,0.0,82,0.00,,,0.00,Wunderground v.1.15,2013-02-26 00:59:00,
2013-02-25 20:09:00,32.2,27.6,30.39,NNE,26,0.0,0.0,83,0.00,,,0.00,Wunderground v.1.15,2013-02-26 01:09:00,
2013-02-25 20:14:00,32.1,27.5,30.39,NNE,26,0.0,0.0,83,0.00,,,0.00,Wunderground v.1.15,2013-02-26 01:14:00,
2013-02-25 20:24:00,32.0,28.0,30.39,NNE,26,0.0,0.0,85,0.00,,,0.00,Wunderground v.1.15,2013-02-26 01:24:00,
2013-02-25 20:34:00,31.7,28.0,30.39,NNE,26,0.0,1.0,86,0.00,,,0.00,Wunderground v.1.15,2013-02-26 01:34:00,
2013-02-25 20:39:00,31.5,27.8,30.39,NNE,26,0.0,2.0,86,0.00,,,0.00,Wunderground v.1.15,2013-02-26 01:39:00,
2013-02-25 20:44:00,31.5,28.1,30.39,NNE,26,0.0,2.0,87,0.00,,,0.00,Wunderground v.1.15,2013-02-26 01:44:00,
2013-02-25 20:49:00,31.4,28.0,30.39,NNE,26,0.0,2.0,87,0.00,,,0.00,Wunderground v.1.15,2013-02-26 01:49:00,
2013-02-25 20:54:00,31.3,27.6,30.39,NNE,26,0.0,2.0,86,0.00,,,0.00,Wunderground v.1.15,2013-02-26 01:54:00,
2013-02-25 20:59:00,31.2,27.5,30.39,NNE,26,0.0,0.0,86,0.00,,,0.00,Wunderground v.1.15,2013-02-26 01:59:00,
2013-02-25 21:09:00,31.1,27.1,30.38,NNE,26,0.0,0.0,85,0.00,,,0.00,Wunderground v.1.15,2013-02-26 02:09:00,
2013-02-25 21:19:00,31.0,27.0,30.39,NNE,26,0.0,0.0,85,0.00,,,0.00,Wunderground v.1.15,2013-02-26 02:19:00,
2013-02-25 21:24:00,30.8,26.8,30.39,NNE,26,0.0,0.0,85,0.00,,,0.00,Wunderground v.1.15,2013-02-26 02:24:00,
2013-02-25 21:29:00,30.8,26.8,30.39,NNE,26,0.0,0.0,85,0.00,,,0.00,Wunderground v.1.15,2013-02-26 02:29:00,
2013-02-25 21:34:00,30.8,26.8,30.39,NNE,26,0.0,2.0,85,0.00,,,0.00,Wunderground v.1.15,2013-02-26 02:34:00,
2013-02-25 21:44:00,30.5,26.5,30.39,NNE,26,0.0,2.0,85,0.00,,,0.00,Wunderground v.1.15,2013-02-26 02:44:00,
2013-02-25 21:54:00,30.2,26.5,30.39,NNE,26,0.0,2.0,86,0.00,,,0.00,Wunderground v.1.15,2013-02-26 02:54:00,
2013-02-25 21:59:00,30.3,26.6,30.40,NNE,26,0.0,0.0,86,0.00,,,0.00,Wunderground v.1.15,2013-02-26 02:59:00,
2013-02-25 22:09:00,30.0,26.3,30.40,NNE,26,0.0,0.0,86,0.00,,,0.00,Wunderground v.1.15,2013-02-26 03:09:00,
2013-02-25 22:19:00,29.3,25.9,30.40,NNE,26,0.0,0.0,87,0.00,,,0.00,Wunderground v.1.15,2013-02-26 03:19:00,
2013-02-25 22:24:00,28.9,25.5,30.40,NNE,26,0.0,0.0,87,0.00,,,0.00,Wunderground v.1.15,2013-02-26 03:24:00,
2013-02-25 22:29:00,28.7,25.6,30.40,NNE,26,0.0,0.0,88,0.00,,,0.00,Wunderground v.1.15,2013-02-26 03:29:00,
2013-02-25 22:34:00,28.5,25.7,30.40,NNE,26,0.0,3.0,89,0.00,,,0.00,Wunderground v.1.15,2013-02-26 03:34:00,
2013-02-25 22:39:00,28.4,25.6,30.40,NNE,26,0.0,3.0,89,0.00,,,0.00,Wunderground v.1.15,2013-02-26 03:39:00,
2013-02-25 22:44:00,28.4,25.6,30.40,NNE,26,0.0,3.0,89,0.00,,,0.00,Wunderground v.1.15,2013-02-26 03:44:00,
2013-02-25 22:54:00,28.8,26.2,30.39,NNE,26,0.0,3.0,90,0.00,,,0.00,Wunderground v.1.15,2013-02-26 03:54:00,
2013-02-25 22:59:00,29.1,26.3,30.39,NNE,26,0.0,0.0,89,0.00,,,0.00,Wunderground v.1.15,2013-02-26 03:59:00,
2013-02-25 23:09:00,29.1,26.0,30.39,NNE,26,0.0,0.0,88,0.00,,,0.00,Wunderground v.1.15,2013-02-26 04:09:00,
2013-02-25 23:14:00,28.8,25.7,30.39,NNE,26,0.0,0.0,88,0.00,,,0.00,Wunderground v.1.15,2013-02-26 04:14:00,
2013-02-25 23:20:00,28.7,25.9,30.39,NNE,26,0.0,0.0,89,0.00,,,0.00,Wunderground v.1.15,2013-02-26 04:20:00,
2013-02-25 23:29:00,28.5,25.7,30.39,NNE,26,0.0,0.0,89,0.00,,,0.00,Wunderground v.1.15,2013-02-26 04:29:00,
2013-02-25 23:34:00,28.5,25.7,30.39,NNE,26,0.0,1.0,89,0.00,,,0.00,Wunderground v.1.15,2013-02-26 04:34:00,
2013-02-25 23:39:00,28.5,25.7,30.38,NNE,26,0.0,1.0,89,0.00,,,0.00,Wunderground v.1.15,2013-02-26 04:39:00,
2013-02-25 23:44:00,28.5,25.7,30.38,NNE,26,0.0,1.0,89,0.00,,,0.00,Wunderground v.1.15,2013-02-26 04:44:00,
2013-02-25 23:49:00,28.5,25.7,30.38,NNE,26,0.0,1.0,89,0.00,,,0.00,Wunderground v.1.15,2013-02-26 04:49:00,
2013-02-25 23:59:00,28.6,25.5,30.38,NNE,26,0.0,0.0,88,0.00,,,0.00,Wunderground v.1.15,2013-02-26 04:59:00,